Showing default

FLOCK 4H 25, 66728

Orbit data source: Space-Track

FLOCK 4H 25, 66728 is a payload satellite owned by Planet (US) in SSO that was launched on Fri, 28 Nov 2025 UTC via an FALCON 9 launch vehicle from the Air Force Western Test Range (AFWTR). Payload-class satellites include a variety of spacecraft equipped with specific instruments for various scientific and technological missions. These include communications satellites like Starlink; space stations such as the ISS; scientific satellites like the Hubble; Earth observation satellites from companies like Planet Labs, Umbra, and HawkEye 360; GPS; miniature CubeSats for education and research; and military/defense satellites.

Loading next visibility...
Identifier
66728, 2025-276BQ
Orbit
SSO
Country
Flag of USUS
Related business
Manufacturer
Planet
Mission
Operational Commercial Imaging
Bus & Motor
CUBESAT 3U, Unknown motor
Mass
5.7 kg wet, 5.7 kg dry
Launch date (UTC)
2025-11-28 (6 months ago)
Launch vehicle
FALCON 9
Launch site
Air Force Western Test Range (AFWTR)
Object type
Payload
Rocket body
Debris
Shape & HBR
Box + 2 Pan, 1.0 m
Radar Cross Section
0.072 m²

Expand to show TLE details & history
Last TLE update: 6 hours ago

TLE from 6 hours ago
0 FLOCK 4H 25
1 66728U 25276BQ  26144.93385762  .00005097  00000-0  23725-3 0  9994
2 66728  97.4198 219.0624 0001664  79.1874 280.9549 15.20368370 26185
Epoch: 2026-05-24T22:24Z
TLE epoch observation values (Epoch: 2026-05-24T22:24:45.298Z)
Latitude
0.00003°
Longitude
0.34477°
Altitude
507.602 km
Speed
7.61 km/s
True Right ascension
14h 36m 14s
True Declination
0° 00' 00"
Sunlit
Object was in full shadow at epoch
Visualization orbit readout
Latitude
Unknown
Longitude
Unknown
Altitude
Unknown
Speed
Unknown
Apparent Right ascension
Unknown
Apparent Declination
Unknown
Sunlit
N/A
Visualization observer readout
Local Sidereal Time
13:55:11
Azimuth
Unknown
Elevation
Unknown
Doppler factor
Unknown
Orbital elements
Apogee altitude
502.839 km
Perigee altitude
500.55 km
Semi-major axis
6,879.832 km
Eccentricity
0.00017
Inclination
97.4198°
RAAN
219.0624°
Arg. of periapsis
79.1874°
True anomaly
280.93618°
Mean anomaly
280.9549°
Eccentric anomaly
280.94554°
Mean motion
3.80344 °/min
Orbital period
94.65 mins
BSTAR
0.00023725
Loading maneuver chart data...
Computing Atmospheric mass density...
Loading historical data...
Loading historical data...
Loading historical data...
Loading historical data...
Loading historical data...
Loading historical data...
Loading historical data...

Documentation

Showing up to 5 results
|